Location: Beadle
(51.4667°N, 109.0000°W)
Time: 05:20:56
(UTC+00:00)

Envisat - Pass Details

Date: 21 January 2022
Orbit: 764 x 765 km, 98.2° (Epoch: 25 May)

Event Time Altitude Azimuth Distance (km) Brightness Sun altitude
Rises 12:21:57 0° 14° (NNE) 3,244 6.4 -25.5°
Reaches altitude 10° 12:24:16 10° 15° (NNE) 2,314 5.6 -25.1°
Maximum altitude 12:29:23 86° 103° (ESE) 775 2.9 -24.3°
Drops below altitude 10° 12:34:28 10° 195° (SSW) 2,298 5.3 -23.5°
Sets 12:36:45 0° 195° (SSW) 3,220 6.1 -23.2°
